カタログに戻る

UND ROADS 2

運用中科学SSO
NORAD 64549·PAYLOAD·🇺🇸 United States

打ち上げ Jun 23, 2025 から Vandenberg Space Force Base

Loading…

次のパス (今後24時間)

TLE

最新Source: Space-Track

元期: Sep 13, 2026, 20:52 UTC

1 64549U 25135X   26256.86980408  .00004901  00000-0  20060-3 0  9993
2 64549  97.4869  12.9049 0002441 120.2987 239.8492 15.24790257 68427

AllMySatでUND ROADS 2をリアルタイム追跡

Download on the App Store